Beverly, MA

8:22 PM EDT on March 25, 2017 (GMT -0400)
Beverly Municipal

Weather History for KBVY - November, 2013

Change the Weather History Date:

Saturday, November 9, 2013

  Actual Average Record
Temperature  
Mean Temperature 38 °F -  
Max Temperature 45 °F 49 °F 70 °F (2009)
Min Temperature 32 °F 33 °F 21 °F (2003)
Degree Days  
Heating Degree Days 26    
Moisture  
Dew Point 21 °F    
Average Humidity 49    
Maximum Humidity 61    
Minimum Humidity 34    
Precipitation  
Precipitation 0.00 in - - ()
Sea Level Pressure  
Sea Level Pressure 30.11 in    
Wind  
Wind Speed 9 mph (WSW)    
Max Wind Speed 16 mph    
Max Gust Speed 32 mph    
Visibility 10 miles    
Events      
Averages and records for this station are not official NWS values.
T = Trace of Precipitation, MM = Missing Value Source: NWS Daily Summary

Daily Weather History Graph

Daily Weather History Graph

Search for Another Location

Airport or City:

Trip Planner

Search our weather history database for the weather conditions in past years. The results will help you decide how hot, cold, wet, or windy it might be!

Date:

Astronomy

Nov. 09, 2013 Rise Set
Actual Time 6:27 AM EST 4:26 PM EST
Civil Twilight 5:57 AM EST 4:56 PM EST
Nautical Twilight 5:24 AM EST 5:30 PM EST
Astronomical Twilight 4:50 AM EST 6:03 PM EST
Moon 12:01 PM EST (11/9) 10:55 PM EST (11/9)
Length of Visible Light 10h 58m
Length of Day
9h 59m
Waxing Crescent, 44% of the Moon is Illuminated
Nov 9
Waxing Crescent
Nov 10
First Quarter
Nov 17
Full
Nov 25
Last Quarter
Dec 2
New

Hourly Weather History & Observations

Time (EST) Temp. Windchill Dew Point Humidity Pressure Visibility Wind Dir Wind Speed Gust Speed Precip Events Conditions
12:53 AM 35.1 °F 27.9 °F 21.9 °F 59% 30.07 in 10.0 mi WSW 9.2 mph - N/A   Overcast
1:53 AM 36.0 °F 28.5 °F 21.0 °F 55% 30.09 in 10.0 mi West 10.4 mph - N/A   Overcast
2:53 AM 36.0 °F 28.5 °F 19.9 °F 52% 30.11 in 10.0 mi West 10.4 mph - N/A   Overcast
3:53 AM 34.0 °F 28.0 °F 19.9 °F 56% 30.12 in 10.0 mi WSW 6.9 mph - N/A   Clear
4:53 AM 32.0 °F 24.8 °F 19.9 °F 61% 30.14 in 10.0 mi WSW 8.1 mph - N/A   Clear
5:53 AM 32.0 °F 27.5 °F 19.9 °F 61% 30.15 in 10.0 mi West 4.6 mph - N/A   Clear
6:53 AM 32.0 °F 24.8 °F 19.9 °F 61% 30.17 in 10.0 mi West 8.1 mph - N/A   Partly Cloudy
7:53 AM 36.0 °F 28.5 °F 21.0 °F 55% 30.18 in 10.0 mi West 10.4 mph - N/A   Partly Cloudy
8:53 AM 39.9 °F 32.5 °F 21.0 °F 47% 30.17 in 10.0 mi WNW 12.7 mph - N/A   Scattered Clouds
9:53 AM 42.1 °F 34.2 °F 19.0 °F 40% 30.16 in 10.0 mi WNW 16.1 mph 25.3 mph N/A   Mostly Cloudy
10:53 AM 43.0 °F 35.7 °F 19.0 °F 38% 30.13 in 10.0 mi NW 15.0 mph 24.2 mph N/A   Mostly Cloudy
11:53 AM 45.0 °F 38.2 °F 19.0 °F 36% 30.12 in 10.0 mi WNW 15.0 mph 32.2 mph N/A   Clear
12:53 PM 44.1 °F 37.4 °F 18.0 °F 35% 30.11 in 10.0 mi NW 13.8 mph - N/A   Mostly Cloudy
1:53 PM 45.0 °F 38.5 °F 18.0 °F 34% 30.09 in 10.0 mi NW 13.8 mph - N/A   Mostly Cloudy
2:53 PM 43.0 °F 37.2 °F 19.0 °F 38% 30.09 in 10.0 mi WNW 10.4 mph - N/A   Mostly Cloudy
3:53 PM 43.0 °F 36.4 °F 19.9 °F 40% 30.09 in 10.0 mi WSW 12.7 mph - N/A   Mostly Cloudy
4:53 PM 39.9 °F 37.8 °F 19.9 °F 45% 30.09 in 10.0 mi SW 3.5 mph - N/A   Clear
5:53 PM 39.9 °F 36.7 °F 21.9 °F 49% 30.10 in 10.0 mi SW 4.6 mph - N/A   Mostly Cloudy
6:53 PM 39.9 °F 36.7 °F 21.9 °F 49% 30.10 in 10.0 mi SSW 4.6 mph - N/A   Overcast
7:53 PM 41.0 °F 38.0 °F 23.0 °F 49% 30.10 in 10.0 mi SSW 4.6 mph - N/A   Overcast
8:53 PM 41.0 °F 39.0 °F 25.0 °F 53% 30.09 in 10.0 mi SSW 3.5 mph - N/A   Overcast
9:53 PM 42.1 °F 39.2 °F 26.1 °F 53% 30.09 in 10.0 mi SSW 4.6 mph - N/A   Overcast
10:53 PM 42.1 °F 40.2 °F 26.1 °F 53% 30.06 in 10.0 mi South 3.5 mph - N/A   Overcast
11:53 PM 42.1 °F 37.7 °F 27.0 °F 55% 30.03 in 10.0 mi SSE 6.9 mph - N/A   Overcast